BREEZE-M R/B, 32479

Orbit data source: Space-Track

BREEZE-M R/B, 32479 is space debris in GEO originally from a launch on Mon, 28 Jan 2008 UTC launched from the Tyuratam Missile And Space Complex (TTMTR). Debris objects in space refer to the collection of defunct objects orbiting the Earth. Examples of debris include non-operational satellites, rocket bodies, and fragments generated from explosions, collisions, or faulty payload assembly.

Loading next visibility...
Identifier
32479, 2008-003B
Orbit
GEO
Country
Flag of CISCIS
Related business
Manufacturer
Khrunichev
Mission
Spacecraft
Bus & Motor
BRIZ, Unknown motor
Mass
~1,600 kg wet, 1,600 kg dry
Launch date (UTC)
2008-01-28 (18 years ago)
Launch vehicle
Unknown
Launch site
Tyuratam Missile And Space Complex (TTMTR)
Object type
Payload
Rocket body
Debris
Shape & HBR
Cyl, 2.0 m
Radar Cross Section
15.135 m², Large (>1 m²)

Expand to show TLE details & history
Last TLE update: 21 hours ago

TLE from 21 hours ago
0 BREEZE-M R/B
1 32479U 08003B   26171.02393552 -.00000178  00000-0  00000-0 0  9999
2 32479  11.3244  27.0232 0197314 239.8863 312.8746  1.04003583 69631
Epoch: 2026-06-20T00:34Z
TLE epoch observation values (Epoch: 2026-06-20T00:34:28.028Z)
Latitude
-2.16896°
Longitude
-58.96224°
Altitude
34,225.847 km
Speed
3.154 km/s
True Right ascension
14h 31m 35s
True Declination
-2° 10' 00"
Sunlit
Object was in daylight at epoch
Visualization orbit readout
Latitude
Unknown
Longitude
Unknown
Altitude
Unknown
Speed
Unknown
Apparent Right ascension
Unknown
Apparent Declination
Unknown
Sunlit
N/A
Visualization observer readout
Local Sidereal Time
08:32:38
Azimuth
Unknown
Elevation
Unknown
Doppler factor
Unknown
Orbital elements
Apogee altitude
35,584.845 km
Perigee altitude
33,960.911 km
Semi-major axis
41,151.015 km
Eccentricity
0.01973
Inclination
11.3244°
RAAN
27.0232°
Arg. of periapsis
239.8863°
True anomaly
311.18958°
Mean anomaly
312.8746°
Eccentric anomaly
312.03492°
Mean motion
0.26 °/min
Orbital period
1,384.62 mins
BSTAR
0
Loading maneuver chart data...
Computing Atmospheric mass density...
Loading historical data...
Loading historical data...
Loading historical data...
Loading historical data...
Loading historical data...
Loading historical data...
Loading historical data...
Other satellites on launch #3 in the year 2008 (2008-01-28 UTC)

Documentation

Showing up to 5 results
|